TimeCDT,TemperatureF,Dew PointF,Humidity,Sea Level PressureIn,VisibilityMPH,Wind Direction,Wind SpeedMPH,Gust SpeedMPH,PrecipitationIn,Events,Conditions,WindDirDegrees,DateUTC
12:30 AM,71.6,64.4,78,29.81,10.0,SSE,12.7,-,N/A,,Overcast,150,2013-04-09 05:30:00
2:53 AM,70.0,63.0,78,29.78,10.0,SSE,11.5,-,N/A,,Mostly Cloudy,160,2013-04-09 07:53:00
3:08 AM,69.8,62.6,78,29.79,10.0,SSE,11.5,-,N/A,,Overcast,160,2013-04-09 08:08:00
3:53 AM,70.0,64.0,81,29.78,10.0,SSE,10.4,-,N/A,,Overcast,160,2013-04-09 08:53:00
4:14 AM,69.8,64.4,83,29.79,10.0,SSE,11.5,-,N/A,,Overcast,160,2013-04-09 09:14:00
4:53 AM,70.0,64.0,81,29.78,10.0,SSE,11.5,-,N/A,,Overcast,160,2013-04-09 09:53:00
5:53 AM,69.1,63.0,81,29.79,10.0,SSE,10.4,-,N/A,,Overcast,150,2013-04-09 10:53:00
6:53 AM,68.0,63.0,84,29.79,10.0,SE,11.5,-,N/A,,Mostly Cloudy,140,2013-04-09 11:53:00
7:53 AM,68.0,63.0,84,29.80,10.0,SSE,13.8,-,N/A,,Mostly Cloudy,150,2013-04-09 12:53:00
8:53 AM,71.1,63.0,75,29.81,10.0,SSE,16.1,23.0,N/A,,Mostly Cloudy,150,2013-04-09 13:53:00
10:32 AM,75.2,62.6,65,29.82,10.0,SSE,15.0,23.0,N/A,,Scattered Clouds,160,2013-04-09 15:32:00
10:53 AM,77.0,62.1,60,29.81,10.0,SSE,19.6,27.6,N/A,,Clear,150,2013-04-09 15:53:00
2:53 PM,86.0,64.0,48,29.74,10.0,SSE,20.7,29.9,N/A,,Partly Cloudy,150,2013-04-09 19:53:00
4:53 PM,84.0,66.9,56,29.72,10.0,SE,19.6,28.8,N/A,,Mostly Cloudy,140,2013-04-09 21:53:00
6:53 PM,78.1,68.0,71,29.75,10.0,SE,16.1,25.3,N/A,,Overcast,140,2013-04-09 23:53:00
7:53 PM,77.0,68.0,74,29.75,10.0,SSE,18.4,24.2,N/A,,Overcast,160,2013-04-10 00:53:00
8:53 PM,75.9,68.0,76,29.78,10.0,SSE,17.3,25.3,0.00,,Overcast,150,2013-04-10 01:53:00
9:53 PM,73.0,70.0,90,29.81,7.0,SSE,12.7,-,0.00,,Overcast,160,2013-04-10 02:53:00
10:20 PM,73.4,69.8,88,29.83,6.0,SSE,13.8,-,0.00,Rain,Light Rain,150,2013-04-10 03:20:00
11:41 PM,73.4,69.8,88,29.80,10.0,SSE,15.0,26.5,0.00,,Overcast,150,2013-04-10 04:41:00
11:53 PM,73.9,68.0,82,29.79,10.0,SSE,15.0,25.3,0.00,,Overcast,150,2013-04-10 04:53:00